CDT,Max TemperatureF,Mean TemperatureF,Min TemperatureF,Max Dew PointF,MeanDew PointF,Min DewpointF,Max Humidity, Mean Humidity, Min Humidity, Max Sea Level PressureIn, Mean Sea Level PressureIn, Min Sea Level PressureIn, Max VisibilityMiles, Mean VisibilityMiles, Min VisibilityMiles, Max Wind SpeedMPH, Mean Wind SpeedMPH, Max Gust SpeedMPH,PrecipitationIn, CloudCover, Events, WindDirDegrees
2014-6-1,90,81,72,69,68,66,91,67,46,29.95,29.89,29.81,10,8,5,18,10,24,0.00,2,,146
2014-6-2,91,83,75,70,68,64,82,65,43,30.02,29.93,29.83,10,10,9,18,14,25,0.00,4,,158
2014-6-3,90,82,75,71,69,66,87,64,46,30.03,29.96,29.86,10,10,9,15,11,21,0.00,3,,164
2014-6-4,91,83,75,71,69,67,85,65,47,29.88,29.83,29.75,10,10,10,22,14,32,0.00,3,,181
2014-6-5,91,82,75,72,69,68,82,66,50,29.84,29.80,29.75,10,10,9,22,12,23,0.00,4,,177
2014-6-6,91,83,75,72,69,65,83,65,43,29.95,29.87,29.79,10,10,9,18,12,23,0.00,5,,174
2014-6-7,95,84,75,70,67,65,79,57,38,29.94,29.88,29.81,10,10,10,17,12,23,0.00,4,,186
2014-6-8,87,79,71,73,68,66,91,69,49,30.01,29.86,29.76,10,9,1,25,10,34,0.32,7,Rain-Thunderstorm,225
2014-6-9,80,72,64,74,64,59,94,78,50,29.84,29.78,29.72,10,7,1,31,11,48,0.72,6,Rain-Thunderstorm,245
2014-6-10,84,75,66,61,57,54,68,54,40,29.86,29.80,29.75,10,10,10,18,11,25,0.00,3,,301
2014-6-11,95,80,66,66,62,60,87,55,32,29.89,29.82,29.73,10,10,10,17,5,22,0.00,1,,185
2014-6-12,84,78,73,71,68,66,79,69,55,29.96,29.85,29.71,10,10,6,21,11,24,0.01,6,Rain,86
2014-6-13,89,80,73,70,67,65,83,64,49,30.01,29.94,29.86,10,10,10,13,7,18,0.00,4,,80
2014-6-14,91,82,73,71,69,66,84,65,48,29.91,29.84,29.77,10,10,10,24,13,30,0.00,6,,166
2014-6-15,93,83,75,71,69,67,82,62,44,29.92,29.85,29.78,10,10,10,23,16,31,0.00,4,,172
2014-6-16,93,84,75,72,70,66,87,63,40,30.02,29.95,29.88,10,9,6,23,15,31,0.00,5,,174
2014-6-17,93,86,78,71,69,66,79,62,41,30.01,29.94,29.87,10,10,9,20,16,30,0.00,4,,183
2014-6-18,95,85,77,72,69,66,79,65,41,29.98,29.94,29.88,10,10,6,36,16,43,0.00,5,,174
2014-6-19,95,84,75,72,69,65,82,63,39,30.04,29.99,29.94,10,10,10,20,14,24,0.00,6,,176
2014-6-20,93,84,78,70,67,62,76,56,37,30.10,30.03,29.97,10,10,10,14,9,20,0.00,6,,176
2014-6-21,89,83,79,70,68,63,74,60,44,30.03,29.96,29.89,10,10,10,13,7,,0.00,7,,190
2014-6-22,81,76,71,72,69,67,91,80,69,29.98,29.89,29.82,10,8,4,13,9,20,0.76,7,Rain,170
2014-6-23,88,78,69,72,68,65,91,77,46,29.96,29.89,29.82,10,8,0,24,11,33,0.42,6,Fog-Rain-Thunderstorm,243
2014-6-24,91,81,71,71,68,64,90,73,50,30.03,29.99,29.94,10,10,7,18,4,32,0.14,6,Rain-Thunderstorm,106
2014-6-25,86,78,71,73,70,67,94,84,65,30.06,30.02,29.94,10,9,2,25,6,31,0.12,7,Rain-Thunderstorm,145
2014-6-26,90,81,72,72,69,67,94,77,46,30.03,29.95,29.84,10,9,4,21,11,24,0.00,6,,169
2014-6-27,90,82,73,73,70,68,84,70,50,29.91,29.85,29.77,10,10,10,24,15,32,0.00,5,,170
2014-6-28,90,84,77,76,72,69,88,71,50,29.91,29.87,29.82,10,10,9,23,16,28,0.00,7,Rain,164
2014-6-29,93,86,80,75,71,69,79,63,45,30.00,29.94,29.89,10,10,8,24,14,32,0.00,4,,176
2014-6-30,95,85,77,72,69,64,79,60,37,29.98,29.90,29.82,10,9,7,26,16,34,0.00,2,,185